Weather History for Mammoth, CA

Change the Weather History Date:

Wednesday, August 14, 2013

  Actual Average Record
Temperature  
Mean Temperature 60 °F -  
Max Temperature 84 °F 76 °F 89 °F (2002)
Min Temperature 37 °F 60 °F 35 °F (2014)
Degree Days  
Heating Degree Days 4    
Growing Degree Days 10 (Base 50)    
Moisture  
Dew Point 20 °F    
Average Humidity 22    
Maximum Humidity 45    
Minimum Humidity 10    
Precipitation  
Precipitation 0.00 in - - ()
Sea Level Pressure  
Sea Level Pressure 30.28 in    
Wind  
Wind Speed 4 mph (NNE)    
Max Wind Speed 21 mph    
Max Gust Speed 28 mph    
Visibility 10 miles    
Events      
Averages and records for this station are not official NWS values.
T = Trace of Precipitation, MM = Missing Value Source: NWS Daily Summary

Daily Weather History Graph

Daily Weather History Graph

Search for Another Location

Airport:

Trip Planner

Search our weather history database for the weather conditions in past years. The results will help you decide how hot, cold, wet, or windy it might be!

Date:

Astronomy

Aug. 14, 2013 Rise Set
Actual Time 6:10 AM PDT 7:48 PM PDT
Civil Twilight 5:42 AM PDT 8:16 PM PDT
Nautical Twilight 5:08 AM PDT 8:50 PM PDT
Astronomical Twilight 4:33 AM PDT 9:25 PM PDT
Moon 2:04 PM PDT (8/14) No Moon Set
Length of Visible Light 14h 33m
Length of Day
13h 38m
First Quarter, 54% of the Moon is Illuminated
Aug 14
First Quarter
Aug 20
Full
Aug 28
Last Quarter
Sep 5
New
Sep 12
First Quarter

Hourly Weather History & Observations

Time (PDT) Temp. Windchill Dew Point Humidity Pressure Visibility Wind Dir Wind Speed Gust Speed Precip Events Conditions
12:15 AM 48.2 °F - 17.6 °F 30% 30.31 in 10.0 mi Calm Calm - N/A   Clear
12:35 AM 48.2 °F - 19.4 °F 32% 30.31 in 10.0 mi Calm Calm - N/A   Clear
12:55 AM 50.0 °F - 19.4 °F 30% 30.31 in 10.0 mi Calm Calm - N/A   Clear
1:15 AM 50.0 °F - 19.4 °F 30% 30.31 in 10.0 mi Calm Calm - N/A   Clear
1:35 AM 50.0 °F - 17.6 °F 28% 30.30 in 10.0 mi Calm Calm - N/A   Clear
1:55 AM 48.2 °F - 21.2 °F 34% 30.31 in 10.0 mi SSW 3.5 mph - N/A   Clear
2:15 AM 50.0 °F - 21.2 °F 32% 30.30 in 10.0 mi Calm Calm - N/A   Clear
2:35 AM 42.8 °F - 15.8 °F 34% 30.30 in 10.0 mi Calm Calm - N/A   Clear
2:55 AM 39.2 °F - 17.6 °F 42% 30.30 in 10.0 mi Calm Calm - N/A   Clear
3:15 AM 42.8 °F - 19.4 °F 39% 30.30 in 10.0 mi Calm Calm - N/A   Clear
3:35 AM 44.6 °F - 17.6 °F 34% 30.30 in 10.0 mi Calm Calm - N/A   Clear
3:55 AM 42.8 °F 39.3 °F 19.4 °F 39% 30.30 in 10.0 mi NW 5.8 mph - N/A   Clear
4:15 AM 37.4 °F 34.9 °F 17.6 °F 45% 30.30 in 10.0 mi North 3.5 mph - N/A   Clear
4:35 AM 42.8 °F - 15.8 °F 34% 30.30 in 10.0 mi Calm Calm - N/A   Clear
4:55 AM 44.6 °F - 17.6 °F 34% 30.30 in 10.0 mi Calm Calm - N/A   Clear
5:15 AM 39.2 °F 37.0 °F 15.8 °F 39% 30.30 in 10.0 mi North 3.5 mph - N/A   Clear
5:35 AM 37.4 °F 33.8 °F 12.2 °F 36% 30.30 in 10.0 mi NNW 4.6 mph - N/A   Clear
5:55 AM 41.0 °F 39.0 °F 12.2 °F 31% 30.30 in 10.0 mi North 3.5 mph - N/A   Clear
6:15 AM 42.8 °F 41.1 °F 12.2 °F 29% 30.30 in 10.0 mi NNW 3.5 mph - N/A   Clear
6:35 AM 44.6 °F 42.2 °F 14.0 °F 29% 30.30 in 10.0 mi NNW 4.6 mph - N/A   Clear
6:55 AM 44.6 °F - 14.0 °F 29% 30.31 in 10.0 mi Calm Calm - N/A   Clear
7:15 AM 48.2 °F - 14.0 °F 25% 30.31 in 10.0 mi Calm Calm - N/A   Clear
7:35 AM 51.8 °F - 14.0 °F 22% 30.31 in 10.0 mi Calm Calm - N/A   Clear
7:55 AM 55.4 °F - 14.0 °F 20% 30.31 in 10.0 mi Calm Calm - N/A   Clear
8:15 AM 59.0 °F - 12.2 °F 16% 30.31 in 10.0 mi Calm Calm - N/A   Clear
8:35 AM 60.8 °F - 24.8 °F 25% 30.32 in 10.0 mi SE 4.6 mph - N/A   Clear
8:55 AM 64.4 °F - 21.2 °F 19% 30.31 in 10.0 mi SE 3.5 mph - N/A   Clear
9:15 AM 68.0 °F - 17.6 °F 15% 30.31 in 10.0 mi SSE 5.8 mph - N/A   Clear
9:35 AM 69.8 °F - 21.2 °F 16% 30.31 in 10.0 mi SE 4.6 mph - N/A   Clear
9:55 AM 73.4 °F - 21.2 °F 14% 30.31 in 10.0 mi ESE 3.5 mph - N/A   Clear
10:15 AM 73.4 °F - 21.2 °F 14% 30.31 in 7.0 mi SSE 4.6 mph - N/A   Clear
10:35 AM 77.0 °F - 19.4 °F 12% 30.31 in 10.0 mi ENE 4.6 mph - N/A   Clear
10:55 AM 77.0 °F - 21.2 °F 12% 30.31 in 10.0 mi East 6.9 mph - N/A   Clear
11:15 AM 77.0 °F - 19.4 °F 12% 30.30 in 10.0 mi SE 6.9 mph - N/A   Clear
11:35 AM 78.8 °F - 19.4 °F 11% 30.30 in 10.0 mi SE 9.2 mph - N/A   Clear
11:55 AM 80.6 °F - 19.4 °F 10% 30.30 in 10.0 mi SE 12.7 mph 20.7 mph N/A   Clear
12:55 PM - - - N/A% - - North - - N/A   Unknown
1:15 PM 84.2 °F - 21.2 °F 10% 30.28 in - ESE 13.8 mph 17.3 mph N/A   Clear
1:35 PM 84.2 °F - 21.2 °F 10% 30.27 in 10.0 mi ESE 10.4 mph 18.4 mph N/A   Clear
1:55 PM 84.2 °F - 21.2 °F 10% 30.27 in 10.0 mi ESE 11.5 mph 19.6 mph N/A   Clear
2:15 PM 84.2 °F - 21.2 °F 10% 30.27 in 10.0 mi East 9.2 mph 18.4 mph N/A   Clear
2:35 PM 84.2 °F - 21.2 °F 10% 30.26 in 10.0 mi SE 9.2 mph 16.1 mph N/A   Clear
2:55 PM 82.4 °F - 21.2 °F 10% 30.25 in 10.0 mi SE 6.9 mph - N/A   Clear
3:15 PM 84.2 °F - 21.2 °F 10% 30.25 in 10.0 mi SSE 8.1 mph - N/A   Clear
3:35 PM 84.2 °F - 21.2 °F 10% 30.24 in 10.0 mi SE 9.2 mph 19.6 mph N/A   Clear
3:55 PM 84.2 °F - 21.2 °F 10% 30.24 in 10.0 mi East 5.8 mph - N/A   Clear
4:15 PM 84.2 °F - 21.2 °F 10% 30.24 in 10.0 mi WSW 9.2 mph - N/A   Clear
4:35 PM 84.2 °F - 21.2 °F 10% 30.23 in 10.0 mi WNW 11.5 mph 17.3 mph N/A   Clear
4:55 PM 84.2 °F - 21.2 °F 10% 30.22 in 10.0 mi WNW 17.3 mph 26.5 mph N/A   Clear
5:15 PM 82.4 °F - 23.0 °F 11% 30.22 in 10.0 mi WNW 16.1 mph 20.7 mph N/A   Clear
5:35 PM 82.4 °F - 23.0 °F 11% 30.22 in 10.0 mi WNW 20.7 mph 24.2 mph N/A   Clear
5:55 PM 80.6 °F - 24.8 °F 13% 30.21 in 10.0 mi West 10.4 mph 21.9 mph N/A   Clear
6:15 PM 78.8 °F - 24.8 °F 14% 30.22 in 10.0 mi WNW 16.1 mph 27.6 mph N/A   Clear
6:35 PM 77.0 °F - 24.8 °F 14% 30.21 in 10.0 mi WNW 19.6 mph 25.3 mph N/A   Clear
6:55 PM 77.0 °F - 24.8 °F 14% 30.22 in 10.0 mi WNW 15.0 mph - N/A   Clear
7:15 PM 73.4 °F - 24.8 °F 16% 30.22 in 10.0 mi WNW 12.7 mph 21.9 mph N/A   Clear
7:35 PM 71.6 °F - 23.0 °F 16% 30.23 in 10.0 mi WNW 12.7 mph 24.2 mph N/A   Clear
7:55 PM 69.8 °F - 24.8 °F 18% 30.23 in 10.0 mi West 5.8 mph - N/A   Clear
8:15 PM 68.0 °F - 23.0 °F 18% 30.24 in 10.0 mi North 4.6 mph - N/A   Clear
8:35 PM 66.2 °F - 24.8 °F 21% 30.24 in 10.0 mi WSW 5.8 mph 17.3 mph N/A   Clear
8:55 PM 64.4 °F - 23.0 °F 21% 30.25 in 10.0 mi NNE 5.8 mph - N/A   Clear
9:15 PM 64.4 °F - 24.8 °F 22% 30.26 in 10.0 mi Calm Calm - N/A   Clear
9:35 PM 60.8 °F - 24.8 °F 25% 30.27 in 10.0 mi Calm Calm - N/A   Clear
9:55 PM 60.8 °F - 23.0 °F 23% 30.28 in 10.0 mi Calm Calm - N/A   Clear
10:15 PM 57.2 °F - 23.0 °F 27% 30.28 in 10.0 mi NNW 3.5 mph - N/A   Clear
10:35 PM 57.2 °F - 23.0 °F 27% 30.29 in 10.0 mi Calm Calm - N/A   Clear
10:55 PM 57.2 °F - 23.0 °F 27% 30.29 in 10.0 mi Calm Calm - N/A   Clear
11:15 PM 53.6 °F - 21.2 °F 28% 30.29 in 10.0 mi Calm Calm - N/A   Clear
11:35 PM 53.6 °F - 23.0 °F 30% 30.29 in 10.0 mi Calm Calm - N/A   Clear
11:55 PM 55.4 °F - 23.0 °F 29% 30.29 in 10.0 mi Calm Calm - N/A   Clear